Weather History for Kalamazoo, MI

Change the Weather History Date:

Saturday, April 26, 2014

  Actual Average Record
Temperature  
Mean Temperature 51 °F 53 °F  
Max Temperature 60 °F 64 °F 87 °F (1990)
Min Temperature 41 °F 42 °F 27 °F (1976)
Degree Days  
Heating Degree Days 14 12  
Month to date heating degree days 457 439  
Since 1 July heating degree days 6784 6096  
Cooling Degree Days 0 0  
Month to date cooling degree days 0 0  
Year to date cooling degree days 0 0  
Moisture  
Dew Point 33 °F    
Average Humidity 59    
Maximum Humidity 83    
Minimum Humidity 35    
Precipitation  
Precipitation 0.00 in 0.11 in 0.76 in (1998)
Month to date precipitation 1.70 2.53  
Year to date precipitation 5.48 8.02  
Sea Level Pressure  
Sea Level Pressure 29.94 in    
Wind  
Wind Speed 9 mph (NNW)    
Max Wind Speed 18 mph    
Max Gust Speed 22 mph    
Visibility 10 miles    
Events      
T = Trace of Precipitation, MM = Missing Value Source: NWS Daily Summary

Daily Weather History Graph

Daily Weather History Graph

Search for Another Location

Airport:

Trip Planner

Search our weather history database for the weather conditions in past years. The results will help you decide how hot, cold, wet, or windy it might be!

Date:

Astronomy

Apr. 26, 2014 Rise Set
Actual Time 6:44 AM EDT 8:36 PM EDT
Civil Twilight 6:14 AM EDT 9:06 PM EDT
Nautical Twilight 5:38 AM EDT 9:42 PM EDT
Astronomical Twilight 4:58 AM EDT 10:22 PM EDT
Moon 5:11 AM EDT (4/26) 6:00 PM EDT (4/26)
Length of Visible Light 14h 51m
Length of Day
13h 51m
Waning Crescent, 8% of the Moon is Illuminated
Apr 26
Waning Crescent
Apr 29
New
May 6
First Quarter
May 14
Full
May 21
Last Quarter

Hourly Weather History & Observations

Time (EDT) Temp. Windchill Dew Point Humidity Pressure Visibility Wind Dir Wind Speed Gust Speed Precip Events Conditions
12:53 AM 45.0 °F 41.2 °F 39.0 °F 80% 29.83 in 10.0 mi SW 6.9 mph - N/A   Clear
1:53 AM 48.9 °F - 37.9 °F 66% 29.81 in 10.0 mi SW 8.1 mph - N/A   Mostly Cloudy
2:53 AM 50.0 °F - 37.9 °F 63% 29.83 in 10.0 mi NW 9.2 mph - N/A   Partly Cloudy
3:53 AM 46.9 °F - 36.0 °F 66% 29.82 in 10.0 mi NW 6.9 mph - N/A   Scattered Clouds
4:53 AM 44.1 °F 39.0 °F 36.0 °F 73% 29.84 in 10.0 mi NNW 9.2 mph - N/A   Clear
5:53 AM 43.0 °F 36.4 °F 35.1 °F 74% 29.86 in 10.0 mi NNW 12.7 mph - N/A   Clear
6:53 AM 42.1 °F 38.4 °F 32.0 °F 67% 29.88 in 10.0 mi NW 5.8 mph - N/A   Clear
7:53 AM 44.1 °F 38.6 °F 32.0 °F 63% 29.91 in 10.0 mi NNW 10.4 mph - N/A   Clear
8:53 AM 46.0 °F 40.2 °F 34.0 °F 63% 29.94 in 10.0 mi North 12.7 mph - N/A   Clear
9:53 AM 46.9 °F - 33.1 °F 59% 29.95 in 10.0 mi NNW 13.8 mph - N/A   Clear
10:53 AM 48.9 °F - 30.9 °F 50% 29.96 in 10.0 mi North 12.7 mph - N/A   Clear
11:53 AM 51.1 °F - 32.0 °F 48% 29.96 in 10.0 mi North 9.2 mph - N/A   Clear
12:53 PM 55.0 °F - 33.1 °F 43% 29.95 in 10.0 mi NNW 9.2 mph - N/A   Clear
1:53 PM 55.9 °F - 30.0 °F 37% 29.97 in 10.0 mi North 8.1 mph - N/A   Clear
2:53 PM 59.0 °F - 33.1 °F 38% 29.98 in 10.0 mi NNW 15.0 mph 18.4 mph N/A   Clear
3:53 PM 59.0 °F - 34.0 °F 39% 29.98 in 10.0 mi NNW 13.8 mph - N/A   Clear
4:53 PM 59.0 °F - 34.0 °F 39% 29.98 in 10.0 mi North 10.4 mph - N/A   Clear
5:53 PM 57.9 °F - 32.0 °F 37% 29.99 in 10.0 mi North 9.2 mph - N/A   Clear
6:53 PM 57.9 °F - 30.9 °F 36% 29.99 in 10.0 mi NNE 5.8 mph - N/A   Clear
7:53 PM 55.9 °F - 28.9 °F 36% 30.01 in 10.0 mi North 5.8 mph - N/A   Clear
8:53 PM 54.0 °F - 30.0 °F 40% 30.02 in 10.0 mi ENE 6.9 mph - N/A   Clear
9:53 PM 50.0 °F - 34.0 °F 54% 30.04 in 10.0 mi NE 8.1 mph - N/A   Clear
10:53 PM 48.0 °F - 33.1 °F 56% 30.06 in 10.0 mi Variable 6.9 mph - N/A   Clear
11:53 PM 46.0 °F 41.4 °F 33.1 °F 61% 30.06 in 10.0 mi East 9.2 mph - N/A   Mostly Cloudy